Location: Buckland
(65.9785°N, 161.1281°W)
Time: 05:03:14
(UTC+00:00)

Transit 4A - Pass Details

Date: 26 November 2020
Orbit: 864 x 980 km, 66.8° (Epoch: 26 January)

Event Time Altitude Azimuth Distance (km) Brightness Sun altitude
Rises 00:41:33 0° 281° (WNW) 3,687 11.3 -0.4°
Reaches altitude 10° 00:44:07 10° 282° (WNW) 2,742 10.6 -0.5°
Maximum altitude 00:50:35 88° 10° (N) 990 8.1 -0.8°
Drops below altitude 10° 00:57:00 10° 104° (ESE) 2,716 10.2 -1.2°
Sets 00:59:32 0° 105° (ESE) 3,650 10.8 -1.3°
